Location: Poughquag
(41.6090°N, 73.6820°W)
Time: 13:31:26
(UTC-04:00)

Courier 1B - Pass Details

Date: 29 May 2020
Orbit: 962 x 1209 km, 28.3° (Epoch: 05 July)

Event Time Altitude Azimuth Distance (km) Brightness Sun altitude
Exits shadow 03:29:28 24° 215° (SW) 2,243 8.8 -17.0°
Maximum altitude 03:32:13 30° 183° (S) 2,003 8.7 -16.7°
Drops below altitude 10° 03:38:47 10° 125° (SE) 3,120 10.2 -15.9°
Sets 03:41:58 0° 115° (ESE) 4,063 10.9 -15.5°
